Location: Newark
(52.8662°N, 8.1982°W)
Time: 15:58:25
(UTC+00:00)

ISS - Pass Details

Date: 22 November 2019
Orbit: 411 x 421 km, 51.6° (Epoch: 13 December)

Event Time Altitude Azimuth Distance (km) Brightness Sun altitude
Rises 18:58:25 0° 206° (SSW) 2,350 0.5 -21.9°
Reaches altitude 10° 19:01:00 10° 185° (S) 1,494 -0.9 -22.2°
Enters shadow 19:01:09 11° 183° (S) 1,456 -0.9 -22.3°
